Location: Newsoms
(36.6240°N, 77.1250°W)
Time: 16:37:54
(UTC-04:00)

Daily predictions for brighter satellites

Satellite Brightness Start Highest point End
(mag) Time Altitude Azimuth Time Altitude Azimuth Time Altitude Azimuth
Cosmos 2292 Rocket 4.3 20:35:14 10° N 20:40:13 76° E 20:46:56 10° S
Cosmos 1812 3.1 20:42:59 10° SSW 20:46:51 70° W 20:50:43 10° N
Abrixas 4.1 20:47:10 10° W 20:49:26 23° SW 20:51:42 10° SSE
Cosmos 2263 4.3 20:44:48 10° NNW 20:50:37 90° WSW 20:56:20 10° SSE
Cosmos 1709 Rocket 4.0 20:47:28 10° N 20:53:45 74° E 20:59:55 10° SSE
CZ-2D R/B 3.6 20:50:24 10° S 20:54:12 66° W 20:58:00 10° NNW
Cosmos 1743 4.1 20:51:25 10° NNE 20:54:29 22° ENE 20:57:28 10° SE
Envisat 3.2 20:50:23 10° SSE 20:55:18 53° ENE 21:00:15 10° N
Iridium 4 Rocket 3.5 20:51:22 10° N 20:56:24 82° E 21:01:54 10° S
ASTRO E2 3.3 20:56:05 10° WSW 20:59:48 38° S 21:03:15 12° ESE
Aureole 3 Rocket 4.5 20:54:49 10° SSE 21:01:17 38° E 21:06:05 10° NNE
Tiangong 2 1.4 21:06:29 10° SW 21:09:31 42° SSE 21:12:32 10° ENE
Aureole 1 Rocket 3.6 21:08:03 10° SSE 21:10:55 22° ESE 21:13:27 10° NE
NOSS 2-2 (E) 3.4 21:07:59 10° SSW 21:11:57 90° NNW 21:16:26 10° NNE
Meteor 2-4 Rocket 4.2 21:13:38 10° SSE 21:18:45 39° E 21:24:02 10° NNE
USA 186 3.5 21:18:42 10° SSW 21:21:39 32° W 21:24:34 10° NNW
ISS -3.2 21:18:40 10° SSW 21:21:40 33° SE 21:24:40 10° ENE
Cosmos 1666 3.5 21:21:46 10° NNE 21:25:11 32° E 21:26:56 21° SE
Cosmos 923 Rocket 4.0 21:20:49 10° S 21:26:07 78° ESE 21:31:27 10° NNE
OAO 2 Rocket 3.3 21:21:41 10° WSW 21:26:34 64° S 21:31:03 13° E
Cosmos 1536 Rocket 3.9 21:27:11 10° SSW 21:31:28 67° W 21:35:47 10° N
CZ-3A R/B 1.9 21:26:35 10° SSW 21:32:10 31° SE 21:33:08 25° ESE
Cosmos 1437 3.5 21:30:32 10° SSW 21:33:41 52° W 21:36:51 10° N
Cosmos 2184 Rocket 4.1 21:27:33 10° N 21:33:52 63° E 21:38:55 16° SSE
CZ-4B DEB 2.9 21:31:49 16° S 21:34:01 63° W 21:36:59 10° NNW
Cosmos 2074 Rocket 4.0 21:27:52 10° N 21:34:04 66° E 21:39:14 15° SSE
Helios 1A 3.6 21:29:56 10° S 21:34:05 56° W 21:38:14 10° NNW
Meteor 1-19 Rocket 4.3 21:34:04 10° S 21:39:55 89° E 21:45:42 10° N
Meteor 1-29 4.1 21:37:56 10° N 21:41:10 44° WNW 21:44:23 10° SSW
YAOGAN 6 2.4 21:42:06 24° S 21:44:06 86° WSW 21:47:37 10° NNW
ERS-1 Rocket 3.0 21:41:30 22° SSE 21:44:46 68° ENE 21:49:45 10° N
Cosmos 1656 Rocket 3.6 21:40:51 10° NNW 21:46:19 86° ENE 21:49:49 23° SSE
Cosmos 2369 Rocket 4.5 21:43:01 10° NW 21:46:58 20° W 21:50:53 10° SW
Meteor 1-23 Rocket 4.3 21:43:45 17° SSE 21:47:54 54° E 21:53:20 10° NNE
MetOp-A 4.4 21:45:09 24° SE 21:48:12 54° ENE 21:53:26 10° N
MOS 1-B Rocket 4.2 21:46:03 24° SE 21:49:24 54° ENE 21:55:26 10° N
Cosmos 405 Rocket 3.3 21:47:02 10° SSW 21:50:41 54° W 21:54:24 10° N
Resurs 01 Rocket 4.4 21:51:08 10° WSW 21:53:17 13° W 21:55:28 10° WNW
H-2A R/B 3.1 21:52:51 22° E 21:54:26 27° ENE 21:58:34 10° NNE
Cosmos 2112 Rocket 4.0 21:53:44 10° SSW 21:58:57 81° WNW 22:04:11 10° NNE
Cosmos 192 4.2 21:54:45 10° SSW 21:59:39 84° ESE 22:04:34 10° NNE
Cosmos 1025 Rocket 2.9 21:58:34 32° SSE 22:00:25 66° E 22:04:40 10° NNE
Cosmos 1943 Rocket 3.8 21:57:29 10° NW 22:02:10 28° WSW 22:06:47 10° SSW
Cosmos 1441 Rocket 3.2 22:01:18 25° SSW 22:03:24 78° W 22:07:09 10° N
CENTAUR R/B 3.2 21:55:54 10° NW 22:03:58 81° WSW 22:09:18 26° SSE
Nadezhda 1 Rocket 4.1 22:00:05 10° S 22:06:24 82° W 22:12:50 10° N
PSLV R/B 4.4 22:06:50 10° WNW 22:09:46 36° N 22:10:40 29° NE
NOAA 11 4.1 22:07:48 29° SSE 22:10:42 88° WSW 22:16:11 10° NNW
COSMOS 2406 4.3 22:10:08 10° SW 22:15:36 45° WNW 22:21:05 10° N
SL-08 RB Rocket 3.8 22:14:43 46° ESE 22:15:41 57° ENE 22:20:04 10° N
ARGOS 3.1 22:13:33 37° SSE 22:15:45 74° ENE 22:21:11 10° N
SL-27 R/B 3.5 22:14:29 15° SW 22:17:17 47° WNW 22:20:51 10° N
Cosmos 2154 Rocket 4.0 22:11:08 10° N 22:17:30 75° E 22:20:26 34° SSE
COSMOS 2455 4.3 22:13:09 10° NW 22:18:14 29° WSW 22:22:27 14° SSW
Nimbus 7 Rocket 4.4 22:13:12 10° NNE 22:19:15 69° ESE 22:22:27 29° S
SPOT 5 2.4 22:23:05 56° SSE 22:23:59 87° E 22:28:20 10° NNW
H-2A R/B 3.5 22:24:49 25° ENE 22:25:00 25° ENE 22:28:43 10° NNE
Cosmos 2082 Rocket 3.1 22:28:02 31° E 22:28:02 31° E 22:32:23 10° NE
Cosmos 2056 Rocket 3.7 22:23:11 10° N 22:28:14 51° ENE 22:29:09 45° ESE
Cosmos 405 3.7 22:31:18 10° NNW 22:34:43 45° W 22:34:56 45° WSW
Terra 2.6 22:37:12 36° ENE 22:37:22 36° ENE 22:41:42 10° N
Meteor 2-19 Rocket 4.3 22:36:18 10° N 22:42:28 88° E 22:44:22 47° S
Cosmos 967 Rocket 4.3 22:38:24 17° SSW 22:43:23 88° ESE 22:49:41 10° NNE
SPOT 1/Viking Rocket 3.5 22:44:16 57° S 22:45:21 83° WSW 22:50:33 10° NNW
COSMOS 2487 4.3 22:47:22 23° NNE 22:47:22 23° NNE 22:48:55 10° NNE
Cosmos 2341 Rocket 4.0 22:39:13 10° N 22:45:35 90° E 22:47:39 47° S
Cosmos 2369 4.1 22:40:32 10° N 22:46:03 47° ENE 22:46:58 43° E
Tiangong 2 2.8 22:43:17 10° W 22:45:37 33° NW 22:45:37 33° NW
Cosmos 1437 Rocket 3.2 22:45:52 10° NNW 22:49:25 57° WNW 22:49:25 57° WNW
Cosmos 1697 Rocket 3.9 22:50:53 10° N 22:55:40 28° ENE 22:56:25 27° ENE
IGS 5A 4.2 22:56:43 44° NE 22:56:43 44° NE 23:00:02 10° N
ISS -1.4 22:55:27 10° W 22:58:12 24° NNW 23:00:56 10° NNE
Cosmos 1452 Rocket 4.2 22:55:32 10° N 23:00:29 41° ENE 23:00:34 41° ENE
Cosmos 2218 Rocket 4.0 22:55:51 10° N 23:01:56 61° E 23:02:38 57° ESE
Cosmos 1892 Rocket 4.2 23:01:38 47° WSW 23:02:11 50° W 23:06:30 10° N
Cosmos 2228 3.3 23:03:15 10° N 23:06:54 62° NNW 23:06:54 62° NNW
Cosmos 1833 Rocket 2.6 23:11:23 72° E 23:11:23 72° E 23:16:47 10° NNE
OAO 2 Rocket 3.8 23:06:17 10° W 23:10:01 50° WSW 23:10:01 50° WSW
deb Chang Zheng 4 4.1 23:08:05 10° NNE 23:11:27 54° NNE 23:11:27 54° NNE
Cosmos 921 Rocket 3.4 23:09:03 10° NNW 23:12:53 62° NW 23:12:53 62° NW
Cosmos 1066 Rocket 4.0 23:15:05 76° SW 23:15:29 82° W 23:21:05 10° N
Cosmos 1656 3.8 23:10:55 10° NNW 23:16:17 58° ENE 23:16:17 58° ENE
SL-19 R/B 4.1 23:17:12 10° N 23:22:33 76° WNW 23:22:49 73° WSW
CZ-4 R/B 4.0 23:21:57 10° NNE 23:26:30 73° N 23:26:30 73° N
Nadezhda 3 Rocket 4.4 23:29:12 47° E 23:29:12 47° E 23:34:57 10° NNE
USA 267 3.1 23:26:00 10° NE 23:32:34 84° SE 23:34:02 58° SW
Cosmos 1809 Rocket 4.3 23:26:32 10° N 23:32:37 82° W 23:32:56 78° SW
H-2A R/B 3.3 23:33:29 29° WSW 23:33:44 29° W 23:38:04 10° NW
Meteor 2-14 Rocket 4.3 23:29:06 10° N 23:35:08 76° ENE 23:35:08 76° ENE
Cosmos 1980 Rocket 3.0 23:37:20 10° N 23:42:26 40° ENE 23:42:26 40° ENE
SME Rocket 4.5 23:46:35 42° NE 23:46:35 42° NE 23:50:23 10° N
SeaSat 1 3.9 23:46:39 28° NE 23:46:39 28° NE 23:50:36 10° N
Cosmos 2322 Rocket 4.2 23:47:01 10° NNE 23:50:45 18° NE 23:51:42 17° ENE
